Regional Weather Roundup
Issued by NWS Lake Charles, LA

Home | Current Version | Previous Version | Text Only | Print | Product List | Glossary On
Versions: 1 2 3 4 5 6 7 8 9 10 11 12 13 14 15 16 17 18 19 20 21 22 23 24 25 26 27 28 29 30 31 32 33 34 35 36 37 38 39 40 41 42 43 44 45 46 47 48 49 50
075
ASUS44 KLCH 210610
RWRLCH
REGIONAL WEATHER ROUNDUP
NATIONAL WEATHER SERVICE LAKE CHARLES LA
100 AM CDT SAT APR 21 2018

Note: "fair" indicates few or no clouds below 12,000 feet with no
significant weather and/or obstructions to visibility.


ACROSS SOUTHEAST TEXAS

CITY           SKY/WX    TMP DP  RH WIND       PRES   REMARKS
BEAUMONT       FAIR      61  51  70 E9        30.10F
BEAUMONT CITY  FAIR      61  50  67 CALM      30.12F
ORANGE         FAIR      60  52  75 E5        30.13F
JASPER         FAIR      59  51  74 CALM      30.15S
$$

ACROSS CENTRAL LOUISIANA

CITY           SKY/WX    TMP DP  RH WIND       PRES   REMARKS
LEESVILLE      CLOUDY    55  45  67 E5        30.12F
FULLERTON      FAIR      53  48  83 CALM      30.11F
ALEXANDRIA INT FAIR      54  46  74 CALM      30.13F
ESLER FIELD    FAIR      46  46 100 CALM      30.14F
DERIDDER       FAIR      57  43  61 CALM      30.14F
OAKDALE        FAIR      52  49  90 CALM      30.14F
OPELOUSAS      FAIR      55  49  78 CALM      30.14F
$$

ACROSS SOUTHWEST AND SOUTH CENTRAL LOUISIANA

CITY           SKY/WX    TMP DP  RH WIND       PRES   REMARKS
SULPHUR        FAIR      61  50  68 E5        30.13F
LAKE CHARLES   FAIR      60  51  72 E3        30.12F
CHENNAULT INT  FAIR      58  51  76 E5        30.12F
CAMERON PHI    PTCLDY    66  55  68 SE14G21   30.12F
DEQUINCY       FAIR      57  47  68 CALM      30.13F
JENNINGS       FAIR      59  49  69 SE6       30.13F
LAFAYETTE      FAIR      57  53  86 CALM      30.15F
NEW IBERIA     FAIR      59  46  62 SE5       30.15F
ABBEVILLE      FAIR      58  49  73 SE3       30.15F
PATTERSON      FAIR      57  52  83 E6        30.15F
SALT POINT       N/A    N/A N/A N/A E3        30.13F
$$

SELECTED SITES ACROSS THE REGION

CITY           SKY/WX    TMP DP  RH WIND       PRES   REMARKS
HOUSTON BUSH   MOCLDY    59  53  80 E12       30.08F
HOUSTON HOBBY  FAIR      62  60  93 E7        30.07F
GALVESTON      CLOUDY    67  62  84 E16       30.09S
COLLEGE STAT   CLEAR     54  50  86 SE6       30.08F
CONROE         CLOUDY    53  52  96 E3        30.09F
HUNTSVILLE     CLOUDY    58  49  72 SE6       30.08F
LUFKIN         CLOUDY    55  51  86 E6        30.12F
SHREVEPORT     FAIR      54  42  64 SE5       30.13F
MONROE         FAIR      55  42  61 CALM      30.18F
NATCHEZ MS     FAIR      48  46  93 CALM      30.18F
BATON ROUGE    FAIR      54  50  86 CALM      30.16F
N.O. INTL ARPT FAIR      56  52  86 CALM      30.16F
SLIDELL        FAIR      50  47  89 CALM      30.16F
$$

MARINE REPORTS

STATION/POSITION TIME  SKY/WX   TEMP    WIND        PRES    VSBY
                                AIR SEA DIR/SP/G
                 (UTC)          (F)     (DEG/KT/KT) (MB)    (MI)
BUOY 30 S HIGH I 0450            67 70  110/ 17/ 21 1018.8
WVE H/P(F/S)=  4/ 5

SEA RIM ST PARK  0600            65     110/ 13/ 16 1019.5F
PORT ARTHUR      0548                   100/  5/ 10 1019.6F
SABINE PASS N    0542            66 70  110/ 13/ 17 1020.7F
TEXAS POINT      NOT AVBL
CALCASIEU PASS   0548            66 68  150/ 15/ 21 1018.7F
LK CHARLES BEACH 0548                               1019.6F
MARSH ISLAND     NOT AVBL
FRESH WATER LOCK 0548                               1020.4F
AMERADA PASS     0548            59 63   70/  5/  6 1020.8F
$$




USA.gov is the U.S. government's official web portal to all federal, state and local government web resources and services.